Theta_e
317 317 317 317 317 317 317 316 316 315 315 315 314 313 312 312 312 312 312 312 311 312 312 311 311 312 312 314 315 316 318 319 320 321 321 320 320 322 325 325 324 325 325 324 321 319 319 319 320 321 323 322 320 320 319 321 323 325 325 325 325 325 325 323 321 320 320 321 322 322 321 320 319 319 318 316 315 315 314 312 309 306 303 299 296
316 316 316 316 316 316 315 315 314 314 313 313 312 312 311 311 311 311 311 311 311 311 311 310 311 310 311 312 312 313 314 316 318 318 318 318 320 322 322 320 319 321 321 322 321 318 316 318 319 321 323 324 322 319 319 322 324 325 325 325 325 325 325 324 322 320 319 320 322 322 321 320 320 319 317 315 315 315 314 311 307 305 304 300 297
313 314 314 314 314 313 313 313 312 312 312 311 311 311 311 311 311 311 311 311 310 311 310 310 310 310 311 311 311 311 312 313 315 315 316 318 319 319 320 320 321 321 321 322 321 318 317 319 319 320 321 323 322 321 321 323 324 325 325 325 325 325 324 323 323 322 322 322 322 322 321 321 320 319 317 315 314 314 313 310 305 302 301 299 297
312 312 312 312 312 312 311 311 311 311 311 311 311 311 311 311 311 311 311 311 310 311 310 311 311 311 311 310 311 311 311 312 311 313 316 316 315 318 321 323 324 324 324 324 321 319 318 320 320 320 320 321 322 322 323 324 324 325 325 326 325 323 322 322 323 323 323 322 321 320 320 320 319 318 316 314 314 313 311 308 303 299 298 297 296
312 312 312 312 311 311 311 311 311 311 311 311 311 311 311 311 310 311 311 311 311 310 311 311 311 311 311 311 311 310 310 311 311 313 316 315 316 320 324 324 324 324 324 323 319 316 317 319 320 320 321 322 321 321 322 323 324 324 324 325 325 323 321 322 323 322 321 320 319 319 319 319 318 317 316 314 314 313 312 309 303 298 297 296 296
312 312 311 312 311 311 311 311 311 311 311 311 311 311 311 311 310 311 311 311 311 310 310 311 310 311 311 310 311 311 310 310 310 311 313 315 319 323 323 323 324 323 322 320 318 317 318 320 320 321 322 322 322 322 322 323 324 324 323 323 324 323 321 322 322 321 319 318 318 318 318 317 317 316 315 314 313 312 311 309 304 299 297 296 296
312 312 311 311 311 311 311 311 311 311 311 311 311 310 311 311 311 311 311 311 310 310 311 310 310 310 310 311 311 311 311 310 309 310 313 317 320 320 320 319 317 316 317 319 320 321 320 320 321 321 321 321 322 322 322 323 322 322 322 322 322 322 322 321 320 318 318 318 318 318 317 317 316 315 314 313 312 310 309 306 303 299 297 296 296
311 312 311 311 311 311 311 311 311 311 310 310 310 311 311 311 311 311 311 311 310 310 310 310 310 310 310 311 311 311 311 310 310 310 312 315 316 314 313 311 310 312 316 318 319 319 318 319 320 320 320 320 320 320 321 322 321 319 320 321 321 321 321 320 319 318 318 318 317 316 315 315 315 313 312 312 311 311 310 308 306 301 297 296 296
311 312 311 311 311 311 311 311 311 310 311 311 311 312 311 311 311 311 311 310 310 310 310 310 310 310 310 311 311 311 311 311 311 310 310 311 311 308 308 308 311 314 315 315 316 316 317 318 319 320 320 319 320 321 321 321 320 318 319 320 321 321 320 319 319 318 318 317 316 314 314 314 314 313 312 311 311 311 310 309 306 302 297 295 295
311 311 311 311 311 311 311 310 311 311 311 312 312 312 311 311 311 311 310 310 310 310 310 310 310 310 311 311 311 311 311 311 311 311 310 310 309 308 307 308 311 312 312 313 316 317 317 318 319 321 321 321 321 320 319 318 318 319 319 319 319 319 318 318 318 317 316 316 315 314 314 313 313 312 312 311 310 309 308 306 305 300 296 294 294
311 311 311 311 311 311 311 311 311 312 312 312 312 312 311 311 311 310 310 310 310 310 310 310 310 310 311 311 312 312 312 312 312 311 311 310 309 308 307 308 309 309 310 314 318 319 318 318 318 319 320 321 320 318 316 317 318 319 319 318 317 317 316 316 315 315 314 314 313 313 312 312 311 311 310 309 308 307 306 304 301 297 294 293 293
311 311 311 311 311 311 311 312 312 312 312 312 312 311 311 311 311 310 310 310 310 310 310 310 310 310 311 311 311 312 311 311 311 312 311 311 310 310 308 308 311 312 312 314 317 319 319 318 318 318 319 319 319 318 317 318 319 318 317 316 315 315 315 314 314 313 312 311 311 310 310 309 309 308 308 307 306 306 304 302 298 294 292 292 292
311 311 311 311 312 312 312 312 312 312 312 312 312 311 311 311 311 311 311 310 310 310 310 310 310 310 310 310 310 311 311 311 311 311 311 311 311 311 310 309 311 313 312 313 315 316 317 316 316 317 317 318 317 318 318 318 317 317 315 315 314 314 313 313 312 311 310 309 308 307 307 307 306 305 305 305 304 302 300 297 294 291 291 291 291
311 311 312 312 312 312 312 312 312 312 312 312 311 311 311 311 311 311 311 310 310 310 310 310 310 309 310 310 310 310 310 310 311 311 311 311 311 311 310 309 309 309 310 311 314 314 314 314 315 316 318 318 318 318 318 317 316 316 315 314 313 313 313 312 311 310 308 306 305 304 304 304 304 304 303 301 297 295 293 291 290 290 290 290 290
311 312 312 312 312 312 312 312 312 312 312 312 311 311 311 311 311 311 310 310 310 310 310 310 310 309 309 310 310 310 310 310 311 311 311 311 311 311 310 310 310 309 310 312 313 313 313 313 315 317 318 319 318 318 317 316 315 315 314 313 313 313 312 310 309 309 306 304 303 302 302 302 303 301 298 294 291 290 290 290 290 290 289 289 289
311 312 311 311 311 311 311 312 311 311 311 311 311 311 311 311 311 311 310 310 310 310 310 310 310 309 309 309 310 310 310 310 310 310 311 311 311 311 310 310 310 311 312 313 314 314 314 314 316 317 318 318 317 316 316 315 314 313 313 312 312 311 310 308 308 307 304 304 304 303 302 302 300 297 292 290 290 290 289 289 289 289 289 289 290
312 312 311 311 311 311 311 311 311 311 311 311 311 311 311 311 311 311 310 310 310 310 310 310 309 309 309 309 310 310 310 310 310 310 310 310 310 311 310 310 311 311 312 313 314 314 315 316 317 317 317 316 315 314 314 313 312 312 311 311 310 308 307 307 307 305 303 303 304 303 299 296 294 292 290 290 290 289 289 289 289 289 289 289 289
311 311 312 312 311 311 312 311 311 311 311 311 311 311 311 311 311 310 310 310 310 310 310 309 309 309 309 309 310 310 310 310 310 310 310 310 310 310 310 311 311 312 312 312 312 313 313 314 315 315 314 314 313 312 312 311 311 310 309 309 308 306 306 306 306 304 302 301 302 299 294 291 290 290 290 290 289 289 289 289 288 288 288 288 288
312 312 312 312 312 312 312 311 311 311 311 311 311 311 311 311 311 310 310 310 310 310 309 309 309 309 309 309 309 309 310 309 309 309 310 310 310 310 310 310 311 311 311 312 311 311 311 312 312 312 312 312 311 311 310 310 309 308 307 307 306 305 305 305 306 304 301 299 298 295 292 290 290 290 289 289 289 288 288 288 288 288 288 288 287
312 312 312 312 312 312 312 311 312 312 311 311 311 311 311 310 310 310 310 310 310 310 309 309 309 309 309 309 309 309 309 309 309 309 310 310 310 310 310 310 310 310 310 310 310 310 310 310 310 310 310 309 309 308 308 307 307 306 306 305 305 305 305 305 305 305 302 298 295 293 292 290 290 289 289 289 288 288 288 288 288 288 288 287 287
311 311 311 312 312 312 312 312 312 311 311 311 311 311 310 310 310 310 310 310 310 310 309 309 309 309 309 309 309 309 309 309 309 309 309 310 309 309 309 309 309 309 309 309 309 309 309 308 308 308 308 307 307 306 306 306 306 305 305 305 304 304 304 304 303 304 304 301 297 294 292 291 290 290 289 289 288 288 288 288 288 287 287 287 287
311 311 311 311 311 311 311 311 311 311 311 311 311 311 311 310 310 310 310 310 310 310 310 309 309 309 309 309 309 309 309 309 309 309 309 309 309 309 309 309 308 308 308 308 308 308 307 307 307 307 306 306 306 306 306 305 305 305 304 304 304 303 303 303 303 302 303 303 302 299 295 292 291 290 289 289 288 288 288 287 287 287 286 286 286
311 311 311 311 311 311 311 311 311 311 311 311 311 311 310 310 310 310 310 310 310 310 309 309 309 309 309 309 309 309 309 309 309 309 309 309 309 308 308 308 308 307 307 307 307 307 306 306 306 306 306 306 306 305 305 305 305 305 304 304 303 303 303 302 302 301 301 302 302 301 299 294 291 290 289 288 288 287 287 287 287 286 286 286 286
311 311 311 311 311 311 311 311 311 311 311 311 310 310 310 310 310 310 310 309 309 309 309 309 309 309 309 309 309 309 309 309 309 309 309 308 308 308 307 307 307 307 307 307 306 306 306 306 306 306 305 305 305 305 305 305 304 304 304 304 303 303 303 302 301 301 301 301 301 300 297 293 290 289 288 288 287 287 287 286 286 286 286 285 285
311 311 311 311 311 311 311 311 311 311 310 310 310 310 310 310 310 310 309 309 309 309 309 309 309 309 309 309 309 309 309 309 309 309 308 308 307 307 307 307 307 307 307 306 306 306 306 306 306 305 305 305 305 305 304 304 304 303 303 303 303 302 302 301 300 300 300 299 298 297 295 292 290 289 288 287 287 287 286 286 286 286 285 285 285
313 313 312 312 311 311 311 311 311 311 310 310 310 310 310 310 310 309 309 309 309 309 309 309 309 309 309 309 309 309 309 309 309 308 308 307 307 307 307 307 307 306 306 306 306 306 306 306 305 305 305 305 304 304 304 303 303 303 302 302 302 301 301 300 299 299 298 297 296 294 293 291 290 289 288 288 288 287 287 286 286 286 285 285 285
314 313 313 312 311 310 310 310 310 310 310 310 310 310 309 309 309 309 309 309 309 309 309 309 309 309 309 309 308 308 309 309 308 308 307 307 307 307 307 307 306 306 306 306 306 305 305 305 305 305 304 304 304 303 303 302 302 302 301 301 300 300 299 299 298 298 297 296 295 294 293 292 292 291 290 289 289 288 287 287 286 286 285 285 285
314 314 314 313 312 312 311 310 310 310 310 310 310 310 309 309 309 309 309 309 309 309 309 309 309 309 309 308 308 308 308 308 308 307 307 307 307 307 306 306 306 306 306 305 305 305 305 304 304 304 304 303 303 302 302 302 301 301 300 300 300 299 298 298 297 296 296 295 295 294 294 293 292 291 291 290 289 288 287 287 287 286 285 285 285
313 313 312 312 312 312 311 311 311 311 311 311 311 310 309 309 309 309 309 309 309 309 309 309 309 309 308 308 308 308 308 308 307 307 307 307 306 306 306 306 305 305 305 305 304 304 304 304 304 303 303 302 302 301 301 300 300 299 299 299 298 298 297 296 296 295 295 294 294 293 293 292 291 291 290 289 289 288 287 287 287 286 285 285 285
311 311 311 311 311 311 311 311 311 311 311 310 310 310 309 309 308 308 308 308 308 308 308 308 308 308 308 308 308 308 308 307 307 307 307 306 306 306 305 305 305 305 304 304 304 303 303 303 303 302 301 301 300 300 299 299 298 298 297 297 296 296 295 295 294 294 294 293 293 292 292 291 290 290 289 289 288 288 287 287 286 285 285 284 284
311 311 311 311 310 310 310 310 310 310 310 310 310 309 309 308 308 307 307 307 307 307 308 307 307 307 307 308 308 307 307 306 306 306 306 306 306 305 305 304 304 304 303 303 303 302 302 302 301 300 300 299 298 298 297 297 296 296 295 295 294 294 293 293 292 292 292 291 291 290 290 290 289 289 288 288 287 287 287 286 286 285 284 284 283
311 311 311 311 310 310 310 309 309 309 309 309 309 308 308 307 307 307 307 307 307 307 307 307 306 306 307 307 307 307 306 306 306 306 305 305 304 304 304 303 303 303 302 302 301 301 301 300 299 298 298 297 297 296 295 295 294 294 293 292 292 291 291 290 290 289 289 289 289 289 288 288 288 288 287 287 287 286 286 286 285 284 283 283 282
311 311 311 310 310 310 309 309 309 309 308 308 308 308 308 307 307 307 306 306 306 306 306 306 306 307 307 307 307 307 306 306 306 305 304 304 303 303 302 302 302 301 301 300 300 299 299 298 297 297 296 296 295 294 293 292 292 291 290 290 289 289 288 288 288 287 287 287 287 287 287 287 286 286 286 286 285 285 285 284 283 282 281 281 280
311 310 310 310 309 309 309 309 308 308 308 308 308 308 308 308 307 307 306 306 306 306 306 306 306 307 307 307 306 306 305 305 304 304 303 302 302 301 301 301 300 300 299 298 298 297 297 296 296 295 294 293 292 291 291 290 289 289 288 288 288 287 287 287 286 286 286 286 286 286 286 285 285 285 285 284 284 283 283 281 280 279 279 279 279
310 310 309 309 309 309 309 309 308 307 307 307 307 307 307 307 306 306 306 306 306 306 306 307 307 307 306 306 306 305 304 303 302 302 301 301 301 300 300 300 299 298 297 297 296 296 295 295 294 293 292 291 290 289 289 288 288 288 287 287 287 287 286 286 286 286 285 285 285 285 285 285 285 284 283 282 282 281 280 279 278 278 278 278 278
308 308 308 308 308 308 308 308 308 307 307 306 306 306 306 305 305 305 306 305 305 306 306 306 306 306 305 305 304 304 303 302 301 300 300 300 300 299 299 298 297 296 296 296 295 294 293 293 292 291 290 289 288 288 288 288 287 287 287 287 286 286 286 286 285 285 285 285 285 285 285 285 284 284 283 282 281 280 279 278 277 277 277 277 277
307 307 307 307 306 306 307 307 307 307 306 306 305 305 305 305 304 305 305 304 304 305 305 305 305 305 304 304 303 302 301 300 299 299 299 299 298 297 296 296 295 295 294 294 293 292 291 290 289 289 288 288 287 287 287 287 287 287 286 286 286 286 285 285 285 285 285 285 285 284 284 284 284 283 282 281 280 279 278 277 277 277 277 276 276
306 305 305 305 305 305 305 305 305 305 305 304 304 304 304 304 304 304 304 304 304 304 304 304 304 304 304 303 302 301 300 299 299 299 298 297 296 295 295 294 294 293 292 291 291 290 289 288 288 288 287 287 287 287 287 287 287 286 286 286 286 285 285 285 285 285 285 284 284 284 284 283 283 283 282 281 280 278 277 276 276 276 276 276 276
305 305 304 304 304 304 304 304 304 304 304 303 303 303 303 303 303 302 302 302 302 302 302 302 302 302 303 302 301 300 299 299 298 298 297 295 294 294 293 293 292 291 290 289 289 288 288 287 287 287 287 287 286 286 286 286 286 286 286 285 285 285 285 285 285 284 284 284 284 283 283 283 282 282 281 280 279 278 276 276 276 276 275 275 275
304 304 304 303 303 303 303 303 303 302 302 303 302 302 302 302 302 302 301 301 300 300 300 301 301 301 300 300 300 300 299 298 297 296 295 294 293 292 291 290 289 289 288 288 287 287 287 286 286 286 286 286 286 286 286 286 285 285 285 285 285 285 284 284 284 284 284 283 283 283 283 282 282 281 280 280 279 278 277 276 275 275 275 274 274
304 304 303 303 302 302 302 302 302 302 302 302 302 302 302 301 301 301 300 300 299 299 299 300 300 299 299 299 298 298 297 296 295 294 293 292 291 290 289 288 288 287 287 287 286 286 286 286 286 286 286 286 286 285 285 285 285 285 284 284 284 284 284 284 284 283 283 283 282 282 282 281 281 280 280 279 278 278 277 275 275 274 274 274 274
304 304 303 302 302 302 302 301 302 301 301 302 302 302 301 301 301 300 300 299 299 299 299 299 298 298 298 297 295 294 294 293 293 292 290 289 288 288 287 287 287 287 286 286 286 286 286 286 286 286 285 285 285 285 285 285 284 284 284 284 284 284 283 283 283 282 282 282 282 281 281 280 280 279 279 278 278 277 276 275 274 273 273 273 273
303 303 302 302 301 301 301 301 301 301 301 302 302 301 301 301 300 300 299 299 298 298 298 298 298 297 296 294 293 293 292 290 289 289 288 287 287 287 287 286 286 286 286 286 286 286 286 286 285 285 285 285 285 284 284 284 284 284 284 283 283 283 283 283 282 282 281 281 281 280 280 280 279 279 278 278 278 277 276 275 274 273 273 272 272
302 302 302 301 300 300 300 300 300 300 300 301 301 300 300 299 299 299 298 298 298 298 298 298 297 295 294 293 292 290 289 288 287 287 287 286 286 286 286 286 286 286 286 286 286 286 285 285 285 285 285 284 284 284 284 284 284 283 283 283 283 282 282 282 281 281 281 281 280 280 280 279 279 279 278 278 277 277 276 275 274 273 273 272 272
301 301 301 300 300 299 299 299 299 299 299 299 299 299 298 298 298 297 297 297 297 297 296 295 294 293 292 291 289 288 287 286 286 286 286 285 285 285 285 286 286 286 286 286 286 285 285 285 285 284 284 284 284 283 283 283 283 283 283 282 282 282 281 281 281 280 280 280 280 280 280 279 279 278 278 278 277 276 276 275 274 273 273 273 272
300 300 299 299 299 299 298 298 297 297 297 298 298 298 298 297 297 296 296 296 296 295 294 293 292 291 289 288 287 286 285 285 285 285 285 285 285 286 286 286 286 286 286 285 285 285 285 284 284 284 284 283 283 283 283 282 282 282 282 281 281 281 280 280 280 280 280 280 280 279 279 279 279 278 277 277 277 276 275 275 274 274 273 273 273
298 298 298 297 298 298 298 297 297 296 296 296 297 297 297 297 296 295 295 294 294 293 292 290 289 288 286 286 285 285 285 284 284 285 285 285 286 286 286 286 285 285 285 285 285 285 284 284 284 284 283 283 282 282 282 282 281 281 281 281 280 280 280 280 280 279 279 279 279 279 279 278 278 277 277 276 276 275 275 274 274 274 274 274 274
295 295 296 296 296 297 297 297 296 296 295 295 295 295 295 295 294 294 293 293 292 290 289 287 286 285 285 284 284 284 284 285 285 285 286 286 286 286 285 285 285 285 285 284 284 284 284 284 283 283 282 282 282 281 281 281 280 280 280 280 279 279 279 279 279 279 279 279 278 278 278 278 277 277 276 276 276 275 275 274 274 274 274 274 274
293 294 294 295 295 295 295 296 296 295 295 295 294 294 293 293 293 292 291 290 288 287 286 285 284 284 284 284 284 285 285 285 286 286 286 286 285 285 285 285 285 284 284 284 284 284 283 283 283 282 282 281 281 280 280 280 279 279 279 279 279 279 279 279 279 278 278 278 278 278 277 277 276 276 276 276 275 275 274 274 274 274 274 274 274
292 293 293 293 293 294 294 294 294 294 294 294 293 293 292 292 291 289 288 286 285 284 284 284 284 284 285 285 285 286 286 286 286 286 285 285 285 285 285 284 284 284 284 284 284 283 283 282 282 281 281 280 280 279 279 279 279 278 278 278 278 278 278 278 278 278 278 278 277 277 277 276 276 276 275 275 275 274 274 274 274 274 274 274 273
291 292 292 292 292 292 292 292 292 292 292 292 292 291 290 289 287 285 284 284 284 284 284 284 285 285 286 286 286 286 286 286 286 285 285 285 285 284 284 284 284 284 283 283 283 282 282 281 281 280 280 279 279 279 278 278 278 278 278 278 278 278 278 278 278 278 277 277 277 276 276 276 275 275 275 275 274 274 274 274 274 274 274 274 273
Wind_Speed
30 31 31 32 33 34 34 33 33 33 32 32 31 29 28 28 26 25 25 24 24 23 23 23 22 22 22 23 23 24 25 25 25 25 26 26 25 26 28 28 29 30 29 28 28 29 31 30 27 24 25 28 29 32 33 31 33 36 39 41 41 43 42 38 39 42 41 40 39 38 37 36 34 34 33 31 30 31 32 34 36 38 38 39 39
27 29 30 31 32 32 31 31 31 31 30 30 29 27 26 25 24 23 23 22 21 21 21 21 21 21 22 23 23 24 24 25 25 26 26 25 24 25 25 23 24 26 27 29 30 27 27 28 26 24 25 26 26 27 29 31 33 35 35 37 40 43 41 36 35 38 40 40 40 39 39 38 38 37 34 32 31 31 31 33 36 37 37 38 38
25 27 28 29 29 29 29 28 28 28 28 27 26 25 24 22 22 22 21 20 20 20 20 20 20 21 22 23 23 24 25 25 26 26 25 24 22 21 20 19 21 23 24 28 29 26 24 25 26 23 23 27 28 28 29 31 34 34 32 32 35 36 34 34 36 38 39 39 39 38 39 41 40 38 35 32 31 31 31 32 34 36 36 37 37
24 25 25 26 26 26 26 25 25 26 25 25 24 22 22 21 20 20 19 19 20 20 20 20 21 22 23 23 24 24 24 24 24 23 22 21 19 17 18 22 26 27 27 29 30 29 27 25 25 23 23 27 29 29 31 32 35 35 31 30 32 31 29 32 35 36 36 36 35 34 37 41 40 37 34 33 32 32 32 33 35 35 36 36 36
24 24 25 26 26 26 25 24 24 24 23 22 21 20 20 20 20 20 20 20 20 20 21 21 22 22 22 23 23 23 23 24 24 22 21 19 18 19 22 25 27 28 29 29 28 27 26 25 24 23 24 26 28 28 29 29 30 32 33 33 32 30 28 28 29 31 31 32 32 33 36 40 39 37 36 35 33 32 34 35 36 36 36 36 36
25 26 27 28 28 27 26 25 23 22 21 21 20 20 20 20 20 20 20 20 20 21 21 21 21 21 21 21 22 23 23 23 23 22 21 19 20 24 27 27 28 29 30 27 23 22 24 25 25 25 25 26 27 28 27 25 25 28 31 32 31 30 28 26 25 26 27 28 30 33 37 39 38 38 37 35 34 34 35 36 37 37 38 37 36
25 26 28 29 29 27 26 24 22 21 21 21 20 20 20 21 20 20 20 20 20 20 19 20 20 20 21 21 21 22 22 22 22 21 20 22 24 28 30 30 30 29 27 25 23 23 23 23 24 24 26 26 25 24 22 20 21 23 25 25 26 27 26 24 24 25 25 27 30 33 36 38 39 40 38 35 34 34 34 36 38 38 38 36 35
25 25 26 26 25 25 23 22 22 22 22 21 21 21 21 20 20 19 19 19 18 18 18 19 20 20 20 21 21 21 22 22 22 22 23 25 28 29 29 29 28 26 25 25 25 24 23 22 23 24 26 26 24 21 19 19 20 20 20 19 21 23 23 24 27 28 27 29 31 33 35 37 40 41 39 37 36 35 35 36 38 38 37 36 34
25 24 23 22 22 22 23 23 24 23 22 22 21 21 20 20 19 19 18 18 17 18 18 19 20 20 20 20 20 21 20 20 21 22 24 26 26 25 25 26 25 25 25 24 23 23 22 22 22 23 24 25 23 21 20 20 19 18 18 19 21 23 24 26 27 28 29 31 32 32 34 37 40 41 41 40 39 37 35 36 38 37 36 35 35
25 24 23 22 22 24 24 25 24 23 22 21 21 20 20 19 19 19 18 17 17 18 18 19 19 20 19 19 20 20 19 19 20 21 22 23 23 23 24 24 24 25 24 22 21 22 22 23 23 23 22 22 21 21 19 17 17 17 18 19 21 23 24 24 25 27 30 32 33 34 37 39 40 40 41 40 37 35 35 35 37 36 36 36 36
26 24 23 23 24 25 25 25 23 22 22 21 21 20 20 20 19 19 18 18 18 18 18 19 19 20 19 19 19 19 18 18 19 19 20 21 21 22 22 21 21 22 22 22 21 21 22 23 25 24 23 22 21 20 18 17 18 18 18 17 18 20 21 23 26 28 31 33 35 37 40 40 39 37 37 36 35 35 36 35 36 35 36 37 36
27 26 25 25 26 25 25 24 23 22 22 22 22 21 20 21 20 19 19 19 18 19 19 19 19 19 19 19 19 19 18 17 17 18 18 19 19 19 19 18 18 19 21 23 23 22 21 22 23 23 23 22 21 20 18 18 18 17 15 15 16 18 20 24 27 30 32 35 37 39 39 38 36 34 34 35 36 35 34 33 34 34 36 36 35
29 28 27 26 26 26 25 24 24 24 24 23 23 22 22 22 22 21 20 20 20 20 20 19 19 19 19 19 19 18 18 17 17 17 17 17 17 17 17 17 18 20 21 21 21 22 22 21 21 21 21 21 19 18 17 16 15 14 14 15 17 19 22 25 28 30 33 35 37 38 37 36 35 34 33 32 30 29 29 31 32 33 35 35 34
31 29 28 28 27 26 26 26 25 25 25 25 25 24 24 24 23 22 22 22 22 22 21 21 20 20 20 19 19 18 18 18 17 18 17 17 16 15 15 16 17 19 19 18 18 20 20 19 18 18 19 19 19 17 17 17 17 17 17 18 20 22 25 28 29 30 32 33 34 35 34 34 34 32 27 22 21 24 26 28 29 30 32 32 31
32 30 30 28 27 28 28 27 27 26 27 27 27 26 26 26 25 24 24 24 23 23 23 23 22 21 21 21 20 19 19 18 18 18 17 17 16 15 14 14 15 16 16 17 18 19 20 19 17 17 18 18 18 18 19 20 21 21 22 23 25 28 30 31 30 29 29 30 30 30 31 31 29 24 19 17 20 23 26 27 28 28 29 30 30
34 32 30 29 29 29 29 28 28 28 28 28 29 29 28 28 27 26 25 24 24 24 25 25 24 23 23 22 22 21 21 20 19 18 18 17 16 15 14 14 14 14 15 16 17 18 19 18 18 19 19 19 19 20 21 22 22 24 25 26 29 31 30 28 27 27 27 26 24 24 24 23 22 19 18 18 21 24 26 27 28 28 29 31 32
35 33 31 30 31 30 30 29 28 28 29 30 31 31 30 30 29 28 27 26 26 26 26 26 26 25 24 24 23 22 22 21 20 19 18 18 16 15 14 14 14 14 15 16 16 17 17 18 19 20 20 20 21 21 22 23 24 25 27 28 29 28 25 23 24 25 24 22 20 19 19 18 18 19 19 21 23 25 26 28 27 28 30 32 33
37 35 33 32 32 32 30 29 29 30 30 31 32 32 32 31 31 30 29 28 27 26 27 27 28 27 26 25 24 23 22 22 21 20 19 18 17 16 15 15 15 15 16 16 16 16 17 18 19 19 19 19 20 21 22 23 24 26 27 27 25 23 21 21 23 23 21 19 17 17 17 18 19 20 21 23 24 25 26 27 27 28 30 32 33
40 37 35 34 34 33 32 30 30 31 31 31 32 32 32 33 33 32 31 30 28 27 28 29 29 29 28 27 25 24 23 23 22 22 21 19 18 17 16 15 15 16 16 17 17 16 17 17 18 18 18 18 19 20 21 22 23 22 22 21 21 19 19 20 21 21 20 19 17 18 19 20 21 23 24 24 25 25 25 26 26 27 30 31 32
42 41 39 37 37 36 34 33 33 32 31 31 32 33 33 34 34 34 33 32 30 29 29 30 30 29 29 27 26 25 24 24 23 22 21 19 18 17 16 15 15 16 16 16 16 16 16 16 17 17 17 17 17 18 18 18 18 18 18 18 18 18 18 19 19 19 20 19 19 20 21 22 24 24 25 25 25 24 25 25 26 27 29 31 32
45 45 43 41 40 39 38 37 36 34 33 33 33 34 34 35 35 35 35 34 33 31 31 31 31 30 29 28 27 26 26 25 24 23 21 19 17 17 16 15 16 16 16 16 16 15 15 15 15 15 14 14 14 14 13 14 14 15 15 16 16 16 17 17 18 19 20 20 21 22 23 24 25 25 25 25 25 24 24 25 26 26 27 29 30
48 48 47 45 43 42 41 40 39 38 36 35 35 36 36 36 37 37 37 36 35 33 32 32 31 31 30 29 28 28 28 27 25 23 21 20 19 18 17 17 17 17 16 16 15 15 15 14 14 13 11 11 11 12 12 13 13 13 14 14 15 16 16 16 17 18 19 20 22 23 24 25 25 25 24 24 23 23 24 25 25 26 26 27 28
51 51 51 49 47 46 45 44 43 42 40 39 38 38 38 38 39 39 39 38 37 36 34 33 32 32 31 30 30 30 29 28 26 23 22 21 21 20 19 19 18 18 17 16 15 14 13 12 11 10 10 10 10 11 12 13 13 13 14 14 15 16 16 16 16 17 18 20 21 22 23 23 23 23 22 22 21 22 23 25 25 26 26 26 27
53 54 54 53 51 49 48 47 47 45 44 43 42 41 40 40 40 41 41 40 39 38 36 34 34 33 33 32 32 31 30 28 26 24 23 23 22 22 21 20 19 18 17 16 14 13 12 11 11 10 10 10 11 11 12 12 13 13 14 14 15 16 17 17 17 18 19 20 21 21 21 21 21 20 20 20 20 21 22 23 24 25 26 27 27
49 52 54 55 55 54 52 52 51 49 48 47 46 45 43 42 42 43 43 42 41 40 38 36 35 35 35 34 33 32 31 29 27 26 25 24 24 23 22 21 20 18 17 15 14 13 13 12 12 11 11 11 11 11 11 12 12 13 14 14 15 16 17 18 18 19 20 20 20 21 20 19 20 20 20 20 20 20 21 22 23 25 26 27 28
40 43 46 49 52 55 56 56 54 52 51 50 49 48 47 45 44 45 45 44 43 41 39 37 36 36 36 35 34 32 31 30 28 28 27 26 25 24 23 22 20 18 16 16 15 14 14 13 13 12 12 12 12 12 11 12 13 13 14 15 16 16 17 18 19 19 20 19 20 20 20 20 20 21 21 21 21 21 22 24 24 25 26 27 29
37 38 39 41 45 49 52 54 55 54 53 52 52 51 50 48 46 47 46 45 44 42 40 39 38 38 38 37 35 33 32 31 31 29 28 27 26 25 23 22 20 18 17 16 16 15 15 14 13 13 13 13 12 12 12 12 13 14 15 16 16 17 17 18 18 19 19 19 20 20 20 21 21 21 22 22 22 22 23 24 25 26 26 27 29
38 39 39 40 42 44 47 49 51 53 53 53 53 53 53 52 50 49 48 47 46 44 42 40 40 39 39 38 36 35 34 33 32 30 29 28 27 25 23 22 20 19 18 17 16 16 15 14 14 14 14 13 13 12 12 13 14 14 16 16 17 17 17 17 18 18 18 19 20 20 20 21 22 22 22 23 22 22 23 24 25 26 26 27 29
38 39 40 41 43 44 45 47 49 50 52 52 53 53 53 53 52 50 49 48 46 43 41 40 39 39 39 38 37 36 35 34 32 30 29 28 27 25 23 21 20 19 18 17 16 16 15 15 15 14 13 13 13 13 13 13 14 15 16 17 17 17 17 16 17 17 18 18 19 19 19 20 21 21 22 22 22 22 23 24 24 25 26 27 28
34 37 39 41 43 44 46 48 49 50 51 51 51 51 51 51 50 49 48 47 44 42 40 39 38 38 38 38 36 35 34 32 30 30 30 29 28 26 24 22 20 19 18 17 16 16 16 15 14 14 13 13 13 13 14 14 14 15 16 16 16 16 16 16 16 16 17 17 17 17 18 19 19 20 21 21 21 21 22 23 24 24 25 26 27
30 33 35 37 40 42 44 46 47 48 49 49 49 50 50 49 49 48 47 46 43 41 41 39 38 37 37 37 36 35 33 31 30 30 30 30 28 26 23 21 20 18 18 17 16 16 15 15 14 13 13 13 14 14 14 14 14 15 15 14 15 15 14 14 15 15 15 16 16 16 17 18 19 19 20 21 21 21 22 22 23 23 24 24 26
26 29 32 34 35 37 41 43 44 45 46 46 47 48 49 49 49 48 47 46 43 41 40 40 38 37 37 37 37 36 35 34 33 32 31 29 27 24 21 20 19 19 18 17 16 16 15 14 14 14 14 14 15 14 14 13 13 13 12 12 13 13 13 13 14 14 15 16 16 17 17 18 19 20 20 21 22 22 22 22 23 23 24 24 25
25 26 29 32 33 34 36 39 41 42 43 44 45 47 48 49 49 48 47 45 43 41 41 40 39 39 39 39 38 36 35 35 34 32 30 27 25 23 22 21 20 19 18 17 16 15 15 15 14 14 14 15 14 13 12 11 11 11 11 11 11 12 13 13 14 15 15 16 17 17 18 19 20 21 22 22 22 23 23 23 23 23 24 24 25
27 27 28 30 33 34 34 36 38 39 41 42 44 46 48 49 48 48 48 46 44 43 43 42 41 41 41 40 39 37 35 34 32 30 28 25 24 23 22 21 20 19 18 17 16 15 15 14 14 14 14 14 12 11 10 10 10 10 10 11 11 12 13 14 15 15 16 17 18 19 20 21 22 23 24 24 23 24 24 24 23 23 23 24 24
29 29 29 30 32 34 34 34 35 37 39 42 44 46 47 48 48 48 47 47 46 46 46 45 44 43 43 41 39 37 35 33 31 28 26 26 25 24 24 23 21 19 18 17 16 15 14 14 13 13 12 11 10 9 9 9 10 11 11 12 12 13 14 15 16 17 18 18 20 21 22 23 24 24 24 24 24 25 25 24 23 23 23 23 24
30 30 31 32 33 34 35 36 36 37 39 41 43 45 46 47 47 47 46 46 47 47 47 47 47 45 42 39 37 36 34 32 29 28 27 26 26 25 23 21 19 18 17 16 15 14 13 13 12 11 10 10 9 9 9 10 11 12 13 14 14 15 15 16 17 19 20 21 22 23 24 25 26 26 26 25 25 25 25 24 23 23 23 23 24
31 31 32 33 34 36 37 37 38 38 39 40 42 44 45 46 46 46 46 47 48 48 48 48 47 45 42 39 36 34 32 30 29 28 27 27 25 24 22 20 18 17 16 15 14 13 12 11 10 10 9 9 9 10 11 12 13 14 15 15 16 17 17 19 20 21 23 24 25 26 26 27 27 27 27 27 26 25 25 25 24 24 23 23 23
32 32 33 34 35 36 38 38 39 39 40 41 42 43 44 45 46 46 47 47 48 48 48 48 47 45 43 40 38 34 32 31 31 29 28 27 25 24 22 20 18 16 14 13 11 10 10 9 9 9 9 9 11 12 13 14 15 16 17 18 18 19 20 21 22 24 25 26 26 27 27 28 28 28 28 27 26 25 25 24 24 23 23 23 24
31 31 33 34 35 37 38 39 39 40 40 41 42 43 44 45 46 47 47 47 47 47 47 45 43 41 39 38 36 34 33 32 31 30 28 26 24 22 20 18 16 14 12 11 10 9 9 8 8 9 10 11 13 14 15 16 17 18 19 20 21 21 22 23 24 25 26 27 27 28 28 29 29 28 28 27 26 25 24 24 24 24 24 25 24
30 30 32 33 35 36 37 38 39 40 40 40 41 42 44 45 46 46 46 47 46 45 42 40 37 35 34 33 33 33 32 31 30 28 26 24 22 20 18 16 14 12 11 10 9 8 8 8 9 10 12 13 15 16 17 18 19 20 21 22 22 23 24 24 25 26 27 27 28 28 29 29 29 29 29 28 26 25 25 25 24 23 22 23 23
29 29 30 32 34 35 37 38 39 39 39 39 40 41 42 43 44 45 45 44 43 41 37 34 31 31 31 31 31 30 29 28 27 25 23 21 20 19 17 15 14 12 10 9 8 8 8 9 11 13 14 16 17 18 19 20 21 22 22 23 24 24 25 25 26 27 27 28 28 28 28 28 28 29 28 28 27 26 26 25 23 21 21 23 24
27 28 28 30 32 34 36 37 38 37 36 36 37 38 40 41 42 42 42 40 39 37 34 31 31 31 32 31 30 29 28 26 24 23 22 21 20 18 17 15 13 11 10 9 8 8 10 11 13 15 17 18 19 20 21 22 22 23 24 25 25 25 26 26 26 27 27 27 27 27 27 27 27 27 27 27 26 26 26 25 23 22 22 23 23
26 26 27 29 30 32 34 35 35 35 34 34 34 35 37 38 38 38 37 36 35 33 32 32 34 34 34 32 31 29 28 26 24 23 22 21 19 17 15 13 11 10 8 8 8 10 12 14 16 18 19 20 21 22 23 23 24 25 25 26 26 26 26 26 26 26 26 26 26 26 26 25 25 25 25 25 25 25 24 24 23 21 21 21 20
25 25 26 27 28 30 31 31 32 32 31 31 31 31 32 32 33 33 34 34 34 33 33 35 35 35 34 33 31 29 28 26 24 22 21 19 17 15 13 11 9 8 8 8 10 12 14 16 18 20 21 22 23 24 24 25 26 26 26 26 26 26 26 26 25 25 25 25 24 24 24 23 23 23 22 22 22 23 23 22 21 20 20 19 20
24 24 25 25 26 27 28 29 29 29 29 28 28 29 29 30 32 33 34 34 34 35 35 35 35 34 33 32 30 28 26 24 22 20 18 16 14 12 10 9 8 8 9 10 12 14 16 18 20 22 23 24 24 25 26 26 26 26 26 26 26 25 24 24 24 23 23 23 23 22 22 22 21 21 20 20 20 21 21 21 20 20 20 20 20
23 23 23 24 25 25 26 27 27 27 27 28 29 30 31 32 33 34 34 34 35 35 35 34 33 31 30 29 27 25 23 21 19 17 15 13 11 9 8 7 8 9 11 12 14 16 18 20 22 23 24 25 26 26 26 26 25 25 25 25 24 23 22 22 21 21 21 21 21 20 20 20 20 19 19 19 19 19 19 19 19 19 20 19 19
22 22 22 23 23 24 25 26 26 27 28 30 31 31 32 33 34 34 34 33 33 32 32 30 29 28 27 26 24 22 20 18 16 13 11 9 7 7 7 8 10 11 13 14 16 18 20 22 24 25 25 25 25 25 25 25 24 23 23 22 22 21 20 19 19 19 19 19 19 19 19 19 19 19 18 18 17 18 18 18 19 19 20 19 19
21 21 21 22 22 23 24 26 27 29 30 31 32 32 33 33 33 33 32 32 31 30 29 28 27 26 24 23 21 18 16 13 11 9 7 6 7 7 9 10 12 13 15 16 18 20 22 24 25 25 25 25 24 24 23 23 22 21 20 20 19 19 18 18 18 18 18 17 17 18 18 18 18 18 18 18 17 17 18 18 18 19 20 20 19
21 21 21 22 23 24 25 27 29 30 31 32 32 32 32 32 31 31 30 30 29 28 27 26 25 23 20 18 16 13 11 9 7 7 6 7 8 10 11 13 14 16 18 19 21 22 23 24 25 25 24 24 23 22 21 20 19 18 18 17 17 17 17 17 17 17 17 17 16 16 17 17 17 17 17 18 18 18 18 18 19 19 20 21 20
21 21 21 22 24 25 27 28 29 30 31 31 31 31 30 30 29 29 28 28 27 26 24 22 20 18 15 13 11 9 8 7 7 7 8 9 11 12 14 15 17 18 20 21 22 23 24 24 24 23 23 22 21 20 19 18 17 17 16 16 16 16 16 16 16 16 16 16 16 16 17 17 17 17 17 17 18 18 18 18 19 20 20 21 20
22 21 22 23 24 25 26 27 28 28 29 28 28 28 28 28 28 27 26 25 24 22 20 17 15 13 11 9 8 8 8 8 9 10 11 12 13 15 16 18 19 21 22 22 23 23 23 23 23 22 21 20 19 19 18 17 16 16 15 15 15 16 16 16 16 16 16 16 17 17 17 18 17 17 17 17 17 18 18 19 19 20 20 20 19
Wind_Direction
238 240 241 243 245 248 250 252 254 256 257 258 258 257 256 256 258 261 262 263 264 264 264 264 264 265 265 265 265 266 265 265 266 265 264 263 264 266 268 266 264 263 260 263 272 276 273 270 269 270 268 267 269 267 262 262 266 269 270 271 272 272 269 261 259 265 273 278 279 276 274 275 267 261 269 272 266 265 266 263 259 256 257 257 256
237 239 240 242 244 247 249 250 251 251 252 251 250 250 251 254 257 258 258 258 259 259 259 261 262 263 264 265 265 265 265 265 264 264 263 262 263 264 263 262 261 258 257 264 273 279 274 265 264 267 265 263 267 265 259 263 269 271 272 273 274 275 272 263 260 267 272 276 278 274 271 273 270 264 268 274 270 268 268 265 260 257 257 258 256
239 240 241 242 244 246 246 246 244 243 242 243 245 247 250 252 252 251 251 251 251 251 253 255 257 258 260 262 263 263 263 263 262 260 260 259 258 257 256 259 265 266 262 262 270 279 276 266 264 268 267 265 267 267 266 270 274 272 274 276 275 275 270 261 261 268 273 275 277 274 271 273 271 266 270 275 272 269 268 266 263 259 258 257 255
243 243 242 242 241 240 239 236 234 235 239 243 245 246 245 243 242 242 241 242 243 246 248 250 252 254 256 258 260 262 262 262 261 258 256 254 250 249 256 264 267 264 258 261 272 278 275 269 268 268 269 269 269 269 270 277 280 275 273 275 274 272 268 263 264 269 273 275 277 277 276 275 270 267 272 276 271 268 266 264 262 259 256 254 253
246 245 243 240 238 234 230 228 231 237 240 241 239 236 234 232 232 232 234 237 240 242 245 247 249 252 255 258 260 262 262 261 260 257 253 251 252 259 263 262 259 256 258 266 275 274 267 267 271 271 272 273 272 271 270 277 284 282 277 274 270 269 270 269 271 273 275 276 278 279 278 275 269 269 275 276 270 268 267 264 261 257 254 252 252
246 245 242 240 236 231 227 228 233 236 234 230 226 224 223 224 226 229 233 236 239 242 245 249 252 254 257 259 260 261 262 262 260 255 251 249 251 255 255 253 253 256 260 265 270 268 264 266 270 269 270 271 272 272 271 277 287 288 285 279 270 269 275 276 275 276 277 280 281 280 279 275 271 271 274 272 267 267 268 266 262 258 255 253 252
245 244 243 240 234 228 225 228 229 225 220 218 216 217 219 223 227 230 235 238 242 246 249 252 255 257 258 260 261 262 264 265 264 258 252 249 249 250 251 253 255 254 254 258 265 269 267 269 270 266 265 268 269 268 270 277 283 284 286 282 271 270 276 275 271 272 276 280 280 279 279 277 273 272 271 267 264 265 266 264 261 260 259 257 255
243 241 240 234 226 220 219 219 216 212 212 212 213 217 221 226 230 233 238 242 246 249 252 254 255 257 259 260 262 264 265 267 267 263 255 251 251 252 254 255 254 252 254 258 263 264 264 267 267 262 261 264 267 267 267 272 275 275 279 277 266 265 270 268 265 267 271 275 276 277 280 278 275 272 269 264 261 264 269 267 263 260 260 259 259
238 233 228 220 212 208 207 207 207 208 210 212 216 222 226 230 233 237 241 245 248 251 252 254 256 257 259 261 262 263 264 266 267 264 260 258 258 257 255 254 255 256 258 259 258 257 258 260 261 262 263 263 264 265 262 263 268 273 277 275 267 263 265 268 271 272 272 272 273 276 279 280 278 276 273 269 266 268 272 270 264 261 260 259 260
232 226 217 207 201 200 201 204 206 209 214 218 223 227 229 232 236 239 243 246 249 252 253 255 257 258 258 259 259 261 262 263 264 264 263 263 262 261 258 257 257 256 255 256 258 258 255 254 255 260 264 263 262 261 256 257 267 273 274 272 268 268 271 275 277 278 278 278 278 279 279 279 279 279 278 276 271 270 271 270 265 262 261 262 262
226 217 207 199 197 200 203 207 211 214 219 224 226 229 231 235 239 242 246 249 252 253 254 255 256 257 257 256 256 257 258 259 261 263 263 263 262 260 258 257 257 255 252 252 256 259 257 255 255 259 262 263 264 265 263 264 269 271 270 268 269 272 276 278 279 280 281 281 280 279 278 279 281 281 280 278 276 276 275 271 265 262 262 264 265
219 208 201 198 200 204 208 212 216 220 223 226 228 231 235 238 243 247 250 253 256 255 254 254 254 254 253 252 253 256 258 259 261 263 264 263 261 258 256 254 254 254 254 254 257 260 260 260 261 262 264 264 264 268 271 271 268 265 264 267 271 273 275 277 279 279 278 277 276 275 276 279 280 281 281 282 282 281 276 268 264 263 265 265 265
212 204 202 203 205 208 212 216 220 223 226 229 231 233 238 242 246 251 254 256 257 256 255 254 253 251 250 251 253 255 257 258 259 261 262 263 263 260 257 255 254 253 255 257 258 261 264 266 265 265 266 267 267 269 269 266 261 256 257 264 271 276 280 282 281 278 277 275 274 274 275 276 277 280 281 281 280 278 273 268 267 269 269 269 270
208 206 206 207 208 212 217 220 223 226 229 232 234 236 240 245 248 252 255 257 258 258 258 256 253 251 251 252 254 255 257 257 256 256 258 260 261 259 255 252 251 251 250 251 254 259 263 264 262 264 268 269 269 268 263 258 255 253 257 265 271 277 282 284 283 281 279 276 274 273 273 274 276 277 275 272 274 274 271 270 270 271 271 272 272
210 209 209 210 212 217 221 224 227 229 232 235 237 240 243 246 249 252 255 258 260 260 258 255 253 252 252 254 256 256 257 256 254 253 254 256 257 256 252 249 247 247 247 249 252 255 257 257 258 262 267 268 265 261 256 255 255 256 259 264 269 275 281 285 287 286 285 283 277 273 271 271 272 268 259 260 266 268 268 269 270 269 269 269 269
212 211 212 215 219 222 225 227 230 232 236 238 240 243 245 248 251 253 256 259 261 260 259 256 254 253 253 256 257 257 257 255 252 250 250 252 252 251 249 247 245 245 246 248 251 252 253 255 256 260 263 263 262 258 257 260 262 264 267 270 275 280 286 291 292 291 291 289 281 274 269 266 261 254 251 257 262 266 270 272 273 273 273 273 272
214 215 218 222 224 226 228 230 233 236 239 241 243 246 248 250 251 253 256 259 262 263 261 258 255 254 254 255 256 256 257 256 253 251 249 249 248 246 246 246 246 249 250 252 253 254 254 255 256 258 260 261 263 263 265 268 270 273 277 280 284 289 292 293 293 294 294 290 282 275 267 261 256 253 257 263 267 272 277 279 282 283 281 279 279
216 219 224 228 229 230 231 232 235 238 241 243 245 247 249 251 252 254 255 259 262 264 262 258 255 254 253 254 254 254 254 254 253 250 248 246 245 243 243 244 246 249 251 253 255 255 255 256 257 259 261 261 264 266 269 272 276 280 284 288 291 294 292 290 290 293 293 287 277 269 262 260 261 262 265 269 273 279 283 286 289 287 284 283 283
219 223 229 233 234 233 233 234 237 239 243 245 246 247 249 251 253 254 255 258 261 262 261 257 254 253 253 253 253 254 254 253 251 249 245 242 240 240 241 242 243 245 246 248 251 251 252 254 257 261 264 265 267 270 274 277 281 284 288 291 294 295 292 289 288 290 290 283 272 265 263 263 265 267 269 272 276 281 285 287 287 286 285 285 283
224 227 231 234 235 236 235 235 238 240 244 246 247 247 248 250 252 253 254 256 258 260 261 258 254 252 252 252 253 253 253 250 248 247 244 241 238 236 237 237 237 239 241 242 246 250 252 255 257 260 264 268 271 274 278 282 286 290 293 296 298 299 296 292 289 286 284 279 270 265 265 265 267 269 271 274 276 280 283 284 285 286 286 286 285
228 229 231 233 235 237 237 237 239 240 243 246 247 247 248 249 251 252 253 254 256 259 260 258 254 252 250 250 250 250 250 247 244 243 242 239 235 232 231 231 230 232 235 238 242 247 251 255 258 261 265 270 275 280 284 289 294 299 301 301 303 303 300 295 291 286 282 278 273 269 267 267 269 271 273 276 279 280 281 282 284 286 289 290 290
230 232 233 234 236 238 239 240 240 240 241 244 246 248 248 248 249 250 251 251 253 256 258 256 253 250 248 248 248 248 247 244 241 240 238 235 230 227 225 225 225 226 230 235 239 244 249 253 257 262 266 272 279 286 290 296 301 305 305 305 305 305 302 297 293 290 286 282 278 275 273 273 274 277 279 282 283 282 281 281 283 285 287 288 289
234 234 236 236 237 239 241 242 242 241 242 244 246 248 248 248 248 249 249 250 251 253 255 254 251 248 246 245 245 245 244 242 239 236 231 227 223 221 220 221 223 225 229 234 238 242 246 250 254 259 267 273 280 286 292 298 303 304 304 304 304 303 302 299 295 293 289 286 284 282 281 281 282 283 284 283 283 281 281 282 283 284 285 285 286
240 239 239 239 239 240 243 244 244 244 244 245 247 248 249 248 248 249 249 249 250 251 253 252 249 246 244 243 242 242 241 239 235 230 224 220 218 218 219 220 222 225 229 234 237 239 242 247 252 258 266 271 276 282 288 293 297 298 299 300 300 299 299 297 294 291 288 287 286 285 286 288 289 288 287 286 285 284 284 285 287 288 289 289 289
248 247 247 246 245 244 244 245 246 246 246 247 247 249 250 249 248 249 248 248 249 250 251 251 248 246 244 242 240 238 237 235 230 224 219 216 216 217 219 221 223 226 229 231 233 236 241 247 251 256 261 266 270 276 280 284 288 291 293 293 293 292 291 290 289 287 286 286 286 287 288 289 290 289 289 288 288 288 287 287 288 289 291 291 291
256 255 255 254 253 250 247 246 247 248 248 249 249 250 250 250 249 249 248 248 248 250 250 250 247 244 243 242 238 235 233 230 225 220 216 215 216 217 219 221 222 224 226 228 232 236 241 246 250 254 257 261 263 267 272 277 281 284 286 287 288 289 288 287 288 288 288 288 288 288 288 287 287 288 288 288 289 288 288 288 287 288 289 290 290
263 261 260 259 258 255 252 250 250 250 250 251 251 250 250 250 249 248 247 247 248 248 249 248 246 243 241 239 236 232 229 225 220 216 215 216 217 219 219 220 220 221 224 229 234 237 241 244 247 250 252 255 259 264 268 272 277 281 285 287 288 288 288 288 289 289 290 290 289 289 289 289 289 289 289 289 289 289 289 289 289 289 291 291 291
265 264 262 261 259 257 256 254 253 253 254 254 254 253 252 251 250 249 249 249 249 249 250 249 246 243 240 237 233 229 225 220 217 215 216 217 219 220 219 219 219 221 226 231 234 236 239 241 243 246 248 252 258 263 268 273 278 282 286 287 288 289 289 290 291 291 291 291 291 292 293 292 291 291 291 291 292 291 291 291 291 291 293 293 294
262 262 261 260 258 256 255 255 254 254 255 255 255 255 254 252 251 250 250 249 248 250 251 251 248 243 238 235 232 227 222 218 215 216 218 219 220 220 219 219 221 223 227 230 232 234 237 238 239 243 247 252 258 264 269 275 279 281 283 285 286 289 291 292 293 293 293 294 295 296 296 294 294 294 294 294 294 293 293 293 293 293 294 294 296
261 260 259 259 258 257 256 255 254 253 253 253 253 253 252 250 248 247 247 246 246 247 247 246 244 242 238 234 230 225 222 219 218 218 218 218 218 218 219 220 222 225 227 228 228 230 233 235 239 243 248 254 259 264 269 273 275 277 280 284 287 290 293 295 296 296 297 298 299 299 299 298 298 297 296 296 296 295 295 295 295 294 295 297 297
263 261 260 258 258 259 258 257 256 255 254 253 252 251 249 247 244 243 243 242 242 243 243 241 238 237 235 232 227 223 220 219 218 218 218 218 218 218 219 222 223 224 225 224 224 226 230 234 239 245 250 254 258 262 266 270 273 277 281 286 290 293 296 298 299 300 302 301 301 302 301 300 300 299 298 297 297 297 297 296 296 295 296 297 298
269 268 265 262 259 259 259 258 257 256 254 253 251 248 246 244 242 241 241 240 239 240 240 238 235 232 229 226 223 220 218 216 216 216 216 218 218 218 219 221 221 220 220 219 220 224 230 235 241 246 251 255 258 261 265 270 275 280 284 289 292 296 299 301 302 303 303 302 303 303 303 302 301 300 299 297 298 299 299 298 297 297 298 298 299
272 271 269 266 262 260 258 257 256 255 254 253 251 248 246 245 243 242 240 238 237 236 235 234 232 228 225 222 220 218 216 216 216 215 214 214 215 215 216 217 216 215 216 217 219 224 230 236 242 248 252 256 258 261 266 272 278 283 287 290 293 296 299 301 302 303 303 303 304 304 304 304 303 301 301 300 301 302 302 301 301 301 302 302 304
269 267 266 264 262 261 260 258 256 255 254 252 251 249 248 246 245 242 239 236 236 236 233 230 227 224 221 219 217 215 213 213 215 214 212 210 211 212 212 212 211 209 211 215 220 227 233 239 245 250 253 256 258 262 268 276 282 287 291 294 296 297 299 300 301 302 303 304 305 305 305 305 305 304 304 305 306 306 306 306 306 305 305 306 306
268 264 261 259 257 257 258 258 256 254 252 251 250 248 247 245 243 240 238 237 237 236 232 226 222 220 218 217 215 213 211 210 210 209 207 206 207 207 208 208 208 209 212 218 224 230 235 241 247 251 253 255 258 265 274 283 289 292 294 295 296 298 299 300 301 302 303 304 305 305 306 306 306 306 306 306 307 307 307 308 308 307 307 307 307
271 266 262 259 255 253 253 254 254 253 251 250 249 247 245 243 241 239 237 235 234 233 229 224 220 217 215 215 214 211 209 208 206 203 202 203 204 205 207 209 210 212 216 221 227 230 235 241 246 249 252 257 265 274 282 288 291 293 294 295 296 297 299 300 301 302 303 305 305 306 306 306 306 306 305 304 304 304 305 306 306 306 306 307 306
273 269 265 261 257 254 252 251 252 252 250 248 247 245 243 241 239 238 236 233 230 227 225 222 219 215 212 210 209 208 206 204 201 199 199 200 201 202 204 207 210 214 218 222 226 230 234 240 246 252 257 264 273 280 286 288 289 291 292 293 295 297 299 301 302 302 303 304 305 305 305 305 305 304 302 301 301 301 302 303 304 305 305 306 306
273 269 266 262 258 255 253 252 251 249 248 246 244 243 241 240 238 237 234 231 227 224 222 220 217 214 211 208 206 204 202 199 197 196 197 198 199 201 203 205 209 213 216 219 223 229 235 241 249 257 265 272 278 282 284 286 287 289 291 293 296 298 300 301 302 302 302 302 302 303 304 304 303 302 302 301 301 300 301 303 304 304 303 303 302
274 269 265 261 257 254 253 253 251 249 248 245 243 241 239 238 236 234 231 226 223 221 219 218 216 213 211 208 205 201 198 196 196 195 195 196 197 200 203 205 207 209 210 213 219 229 238 246 254 262 270 276 279 282 284 286 288 291 294 296 298 299 300 300 300 300 300 301 302 303 304 304 304 304 303 303 302 300 299 298 298 298 298 298 298
276 270 265 261 257 254 252 252 251 249 248 246 244 241 239 237 234 231 227 223 220 218 216 216 214 211 209 208 205 202 198 196 195 194 194 195 196 196 198 200 202 203 206 211 218 229 240 251 261 268 273 277 280 283 286 288 291 293 295 296 297 297 298 298 299 300 301 302 303 303 304 304 304 304 303 303 302 300 298 298 299 300 300 299 298
275 270 265 261 258 255 253 251 250 249 247 246 244 241 238 235 231 228 225 222 218 215 213 211 210 208 205 203 202 200 198 196 195 193 192 193 193 192 192 194 196 200 206 212 221 233 247 259 268 273 276 279 282 285 289 291 293 294 295 296 297 297 298 299 300 300 301 302 302 302 302 302 303 303 303 303 303 302 301 302 302 299 295 293 292
274 270 265 261 258 256 254 253 251 248 245 243 242 239 236 233 229 226 223 218 214 211 208 204 202 201 199 196 194 193 192 192 193 191 188 187 188 188 190 193 195 200 207 216 229 246 259 268 273 277 280 283 286 288 291 292 294 295 295 296 297 298 299 299 299 299 299 300 300 300 301 301 302 302 303 303 303 302 302 302 301 297 293 292 293
273 269 264 261 258 257 255 254 250 246 243 241 239 236 233 230 227 223 218 212 209 206 204 201 198 196 193 191 190 189 188 187 187 187 185 185 186 187 189 192 196 202 214 230 247 261 269 274 278 281 283 286 288 290 292 293 294 295 296 297 298 298 298 299 299 298 299 299 299 299 300 300 301 302 303 304 304 304 303 303 303 301 299 296 293
268 265 261 258 256 255 253 251 248 245 242 238 235 231 228 224 219 214 209 206 204 203 201 199 197 194 191 189 188 187 185 183 182 183 183 183 184 185 188 192 201 215 232 249 261 269 274 278 280 283 285 287 289 291 293 294 295 296 296 297 298 298 299 299 299 299 299 299 299 299 300 300 302 303 304 305 305 304 304 303 302 300 297 295 292
264 260 256 253 252 250 248 246 243 241 237 231 225 220 215 212 208 206 204 203 202 200 198 196 194 192 189 186 184 183 181 180 180 180 181 181 183 187 193 203 219 236 251 261 268 274 278 281 283 285 287 289 291 293 294 295 296 296 297 298 298 298 298 298 298 299 299 299 299 300 301 303 304 306 307 306 304 302 300 298 296 294 293 293 292
260 255 251 248 246 244 243 240 236 232 227 222 217 211 207 205 204 204 203 202 199 197 195 193 191 189 186 183 180 179 178 179 178 178 180 182 187 196 210 227 242 254 263 270 275 279 282 284 286 288 289 291 292 293 294 295 295 296 297 297 298 298 298 298 298 298 298 299 300 303 305 307 308 309 308 307 304 301 298 296 294 291 291 291 293
253 248 244 242 240 238 236 232 227 222 218 215 212 209 206 203 202 201 200 198 196 193 191 188 185 183 181 179 178 176 175 176 177 178 183 192 204 222 239 251 260 268 274 278 281 283 284 286 288 289 290 291 292 293 293 294 295 295 296 296 297 297 298 298 299 300 301 302 305 307 308 310 311 311 310 307 304 301 298 295 292 290 290 292 294
246 241 238 235 233 230 228 224 219 215 212 210 208 206 203 199 197 195 194 192 189 186 184 181 179 177 176 175 174 173 173 174 179 187 199 216 234 249 260 267 273 277 280 282 284 285 287 288 289 289 290 291 292 292 292 293 293 294 294 295 295 296 297 298 300 301 303 305 307 308 309 310 311 312 311 309 306 303 301 299 297 294 293 294 295
238 235 231 228 225 223 221 218 215 212 210 207 204 201 197 194 191 188 186 183 180 178 177 175 173 171 171 170 170 173 177 183 194 210 227 243 256 265 271 276 279 282 284 285 286 286 287 288 288 289 290 290 290 290 291 291 291 292 292 292 292 294 295 297 298 300 302 304 305 307 308 310 311 313 313 310 308 306 305 304 303 301 299 298 297
229 226 223 221 218 216 214 213 210 207 204 202 199 195 191 187 183 179 176 173 171 169 168 168 167 167 168 171 176 183 193 205 221 236 248 258 265 270 275 279 281 283 284 285 286 287 287 287 287 287 288 288 288 288 288 288 288 288 288 289 290 292 293 295 298 300 301 303 305 307 309 311 313 314 313 310 308 307 307 307 305 304 302 300 298
222 219 216 215 213 211 208 206 203 199 196 193 190 187 181 175 171 168 166 165 164 163 163 164 167 170 176 185 196 207 219 231 241 250 256 262 267 272 276 279 282 283 284 285 285 286 285 285 285 285 285 285 285 285 285 285 285 286 287 288 289 291 293 295 297 299 300 303 305 308 310 312 314 315 314 312 310 310 309 309 307 306 304 301 298